Weather Roundup
Issued by NWS Chicago, IL

Home | Current Version | Previous Version | Text Only | Print | Product List | Glossary On
Versions: 1 2 3 4 5 6 7 8 9 10 11 12 13 14 15 16 17 18 19 20 21 22 23 24 25 26 27 28 29 30 31 32 33 34 35 36 37 38 39 40 41 42 43 44 45 46 47 48 49 50
000
NZUS59 KLOT 280200
HRRLOT

CHICAGO AREA WEATHER ROUNDUP
NATIONAL WEATHER SERVICE CHICAGO/ROMEOVILLE IL
800 PM CST FRI FEB 27 2015

NOTE: "FAIR" INDICATES FEW OR NO CLOUDS BELOW 12,000 FEET WITH NO
SIGNIFICANT WEATHER AND/OR OBSTRUCTIONS TO VISIBILITY.

* THESE STATIONS ARE NOT UNDER NWS QUALITY CONTROL. THEY ALSO MAY NOT
  REPORT WEATHER SUCH AS PRECIPITATION OR FOG.

ILZ005-006-012>014-019>023-280300-
NORTHEAST ILLINOIS

CITY           SKY/WX    TMP DP  RH WIND       PRES   REMARKS
OHARE          CLEAR      6  -6  57 SW6       30.63S WCI  -4
MIDWAY           N/A      9  -4  55 W7        30.65R WCI  -2
AURORA         PTCLDY     0  -9  65 W6        30.64S WCI -12
LANSING*       PTCLDY     2  -5  71 CALM      30.66S
WAUKEGAN       CLEAR      4  -5  66 SW7       30.62R WCI  -8
DUPAGE AIRPORT CLEAR      3  -8  60 SW5       30.63R WCI  -6
WHEELING       CLEAR      8  -4  58 SW6       30.65R WCI  -2
NORTHERLY IS     N/A     11  -2  56 W9          N/A  WCI  -2
$$

WIZ051-052-058>065-066-070>072-280300-
SOUTHEAST WISCONSIN

CITY           SKY/WX    TMP DP  RH WIND       PRES   REMARKS
MILWAUKEE      CLEAR      9  -6  50 SW8       30.60R WCI  -3
KENOSHA*       CLEAR      2  -8  63 SW7       30.61R WCI -11
RACINE*        CLEAR      7  -7  52 SW8       30.63R WCI  -6
$$

INZ001>003-010>013-019-020-280300-
NORTHWEST INDIANA

CITY           SKY/WX    TMP DP  RH WIND       PRES   REMARKS
GARY*          CLEAR     10  -6  48 W8        30.66R WCI  -1
MICHIGAN CITY* NOT AVBL
RENSSELAER*    NOT AVBL
$$

LMZ740>746-280300-
SOUTHERN LAKE MICHIGAN

STATION/POSITION TIME  SKY/WX   TEMP WIND        PRES    VSBY
                                AIR  DIR/SP/G
                 (UTC)          (F)  (DEG/KT/KT) (MB)    (MI)
HARRISON CRIB    0100            13  250/ 15/ 18   N/A
BURNHAM HARBOR   0200            11  250/  7/ 11   N/A
CALUMET HARBOR   0100            11  230/  6/  8 1036.4R
BURNS HARBOR     NOT AVBL
MICHIGAN CITY    0100            11  190/ 10/ 11   N/A
$$

ABBREVIATIONS USED IN REMARKS
   TC - TEMPERATURE IN CELSIUS
  WCI - WIND CHILL INDEX
   HX - HEAT INDEX
  VSB - VISIBILITY
$$


USA.gov is the U.S. government's official web portal to all federal, state and local government web resources and services.